Location: Newark
(50.0306°N, 2.3272°E)
Time: 19:45:09
(UTC+00:00)

Transit 2A Rocket - Pass Details

Date: 14 December 2019
Orbit: 593 x 910 km, 66.7° (Epoch: 27 January)

Event Time Altitude Azimuth Distance (km) Brightness Sun altitude
Rises 15:06:19 0° 197° (SSW) 2,947 9.3 4.3°
Reaches altitude 10° 15:08:42 10° 192° (SSW) 2,003 8.3 4.0°
Maximum altitude 15:12:58 45° 119° (ESE) 829 5.2 3.6°
Drops below altitude 10° 15:17:06 10° 47° (NE) 1,939 6.5 3.1°
Sets 15:19:23 0° 41° (NE) 2,840 7.3 2.8°
